User: anonymous   Login
Location: Unspecified
(0.0000°N, 0.0000°E)
Time: 04:50:42
(UTC+00:00)
Language:

Landsat 7 - Orbit

View from above orbital plane
View from above orbital plane
View from above satellite
View from above satellite

Ground track
Ground track

The orbit data is extracted from the following two-line orbital elements,

1 25682U 99020A   17204.31468958 +.00000088 +00000-0 +29515-4 0  9993
2 25682 098.2091 274.9701 0000703 099.4672 260.6639 14.57113185971859
Epoch (UTC): 23 July 2017 07:33:09
Eccentricity: 0.0000703
inclination: 98.2091°
perigee height: 702 km
apogee height: 703 km
right ascension of ascending node: 274.9701°
argument of perigee: 99.4672°
revolutions per day: 14.57113185
mean anomaly at epoch: 260.6639°
orbit number at epoch: 97185

The dashed part of the orbit path shows where the satellite is in the earth's shadow,  

DLR